CAPE
0 0 0 0 0 0 0 0 0 0 0 0 0 0 0 0 0 0 0 0 0 0 0 0 0 0 0 0 0 0 0 0 0 0 0 58 548 886 805 788 791 552 258 384
0 0 0 0 0 0 0 0 0 0 0 0 0 0 0 0 0 0 0 0 0 0 0 0 0 0 0 0 0 0 0 0 0 0 0 0 0 18 67 887 973 1042 772 409
0 0 0 0 0 0 0 0 0 0 0 0 0 0 0 0 0 0 0 0 0 0 0 0 0 0 0 0 0 0 0 0 0 0 0 0 0 3 2 120 544 1224 1397 1072
0 0 0 0 0 0 0 0 0 0 0 0 0 0 0 0 0 0 0 0 0 0 0 0 0 0 0 0 0 0 0 0 0 0 0 0 0 0 3 83 112 133 797 1712
0 0 0 0 0 0 0 0 0 0 0 0 0 0 0 0 0 0 0 0 0 0 0 0 0 0 0 0 0 0 0 0 0 0 0 0 0 0 0 0 3 14 0 679
0 0 0 0 0 0 0 0 0 0 0 0 0 0 0 0 0 0 0 0 0 0 0 0 0 0 0 0 0 0 0 0 0 0 0 0 0 0 5 12 0 0 0 0
0 0 0 0 0 0 2 8 5 19 16 0 0 0 0 0 0 0 0 0 0 0 0 0 0 0 0 0 0 0 0 0 0 0 0 0 0 0 0 0 0 4 159 0
0 0 8 0 0 0 9 16 45 26 42 35 0 0 5 0 0 0 0 0 0 0 0 0 0 0 0 0 0 0 0 0 0 0 0 0 0 0 0 0 0 0 1 189
5 1 2 9 0 3 13 18 29 23 31 25 0 0 0 0 0 0 0 0 0 0 0 0 0 0 1 2 0 0 0 0 0 0 0 0 0 0 0 0 0 8 6 23
0 7 10 15 1 2 5 8 15 30 13 12 2 0 0 0 0 0 0 0 0 0 0 0 0 0 0 4 2 0 0 0 0 0 0 0 0 0 0 0 0 0 0 145
2 17 3 22 24 24 26 19 17 15 23 37 18 10 6 0 2 0 0 0 5 3 7 1 0 0 2 1 2 3 0 0 0 0 0 0 0 0 0 0 0 0 22 62
14 12 15 27 22 5 10 29 17 9 22 22 22 1 4 0 1 0 0 0 13 29 25 13 0 0 10 15 8 5 2 0 0 0 0 0 0 0 0 0 0 0 5 101
11 30 33 28 21 0 17 16 29 31 37 6 31 0 43 1 12 36 45 38 43 35 43 22 19 39 28 22 18 11 4 3 1 0 0 0 0 0 0 0 0 33 34 69
7 25 25 15 15 0 0 19 4 42 32 20 15 29 17 0 24 58 49 52 63 51 38 41 42 50 55 61 54 36 16 12 13 0 0 1 7 3 3 3 2 1 153 67
23 19 22 16 19 34 56 29 3 9 27 30 17 21 12 21 13 26 59 70 63 59 50 54 55 52 64 79 55 17 32 20 12 4 1 2 2 12 10 7 5 2 29 297
32 29 23 15 25 30 26 23 3 10 14 22 36 28 56 30 16 26 59 65 65 53 50 63 60 81 48 55 53 23 16 11 10 2 0 9 14 4 6 25 13 2 26 606
20 23 22 17 20 14 20 14 26 27 28 9 10 24 39 26 38 62 47 51 26 43 54 73 37 43 75 32 27 52 18 20 26 21 5 4 6 11 4 18 9 4 14 846
19 25 16 17 17 3 17 33 3 27 46 51 82 30 56 97 82 64 26 15 3 49 23 77 58 37 3 24 72 62 43 40 32 20 8 8 7 5 2 0 2 7 9 735
6 6 2 11 17 0 0 4 2 46 0 11 64 36 3 3 5 4 0 7 36 32 43 37 8 0 1 42 65 37 16 4 11 12 0 0 7 1 1 0 0 9 119 753
0 1 0 5 4 8 5 0 8 19 0 83 1 4 5 7 2 0 7 0 0 0 0 10 4 11 19 45 16 18 39 28 29 26 35 21 6 6 6 3 0 15 334 771
10 0 0 7 9 3 41 42 7 10 38 9 2 5 17 17 16 3 7 11 6 13 20 10 12 25 46 29 15 4 6 26 39 49 47 25 24 15 6 0 0 48 791 1288
0 13 3 6 16 13 27 16 21 23 9 9 11 16 20 18 5 11 16 20 17 28 13 7 5 6 13 8 10 0 6 13 46 70 25 1 0 12 12 13 97 760 1165 1722
10 4 12 18 21 26 11 6 7 12 13 12 17 13 21 19 13 7 8 11 7 9 10 6 9 4 2 21 0 0 0 12 46 10 4 1 0 1 0 5 451 1047 1577 1771
10 10 13 17 19 3 1 0 0 10 10 9 11 16 19 19 10 3 5 4 9 10 9 8 6 9 9 3 1 3 0 1 0 3 137 0 0 0 0 441 1047 1347 1545 1865
15 11 2 0 0 0 0 0 1 1 0 12 27 21 14 23 8 3 11 5 3 3 1 3 2 5 5 5 2 0 9 0 2 1 266 459 647 853 939 828 1094 1501 1754 1850
1 0 0 1 2 4 1 1 2 3 20 14 11 2 4 14 6 2 2 3 2 1 0 1 2 3 2 5 0 0 0 0 2 36 179 373 492 404 345 269 132 9 365 860
CIN
-0 -0 -0 -0 -0 -0 -0 -0 -0 -0 -0 -0 -0 -0 -0 -0 -0 -0 -0 -0 -0 -0 -0 -0 -0 -0 -0 -0 -0 -0 -0 -0 -0 -0 -0 -35 -33 -56 -106 -177 -170 -195 -308 -269
-0 -0 -0 -0 -0 -0 -0 -0 -0 -0 -0 -0 -0 -0 -0 -0 -0 -0 -0 -0 -0 -0 -0 -0 -0 -0 -0 -0 -0 -0 -0 -0 -0 -0 -0 -0 -0 -107 -92 -92 -120 -135 -188 -289
-0 -0 -0 -0 -0 -0 -0 -0 -0 -0 -0 -0 -0 -0 -0 -0 -0 -0 -0 -0 -0 -0 -0 -0 -0 -0 -0 -0 -0 -0 -0 -0 -0 -0 -0 -0 -0 -121 -90 -146 -161 -80 -95 -107
-0 -0 -0 -0 -0 -0 -0 -0 -0 -0 -0 -0 -0 -0 -0 -0 -0 -0 -0 -0 -0 -0 -0 -0 -0 -0 -0 -0 -0 -0 -0 -0 -0 -0 -0 -0 -0 -0 -77 -164 -172 -214 -89 -58
-0 -0 -0 -0 -0 -0 -0 -0 -0 -0 -0 -0 -0 -0 -0 -0 -0 -0 -0 -0 -0 -0 -0 -0 -0 -0 -0 -0 -0 -0 -0 -0 -0 -0 -0 -0 -0 -0 -0 -0 -222 -208 -0 -85
-0 -0 -0 -0 -0 -0 -0 -0 -0 -0 -2 -0 -0 -1 -0 -1 -3 -2 -0 -0 -0 -0 -0 -0 -0 -0 -0 -0 -0 -0 -0 -0 -0 -0 -0 -0 -0 -0 -235 -411 -6 -0 -0 -0
-2 -0 -0 -0 -0 -0 -6 -7 -8 -9 -14 -0 -0 -0 -0 -0 -0 -0 -0 -0 -0 -0 -0 -0 -0 -0 -0 -0 -0 -0 -0 -0 -0 -0 -0 -0 -0 -0 -0 -0 -0 -200 -118 -0
-0 -0 -4 -2 -5 -0 -11 -11 -14 -4 -11 -13 -0 -0 -6 -0 -0 -0 -0 -0 -0 -0 -0 -0 -0 -0 -0 -0 -0 -0 -0 -0 -0 -0 -0 -0 -0 -0 -0 -0 -0 -0 -14 -149
-6 -3 -9 -13 -8 -9 -6 -11 -9 -15 -8 -8 -0 -0 -0 -0 -0 -0 -0 -0 -0 -0 -0 -0 -0 -0 -1 -2 -0 -0 -0 -0 -0 -0 -0 -0 -0 -0 -0 -0 -0 -297 -181 -260
-0 -5 -6 -8 -11 -7 -3 -7 -15 -12 -5 -7 -7 -2 -25 -0 -4 -0 -0 -0 -0 -0 -0 -0 -0 -0 -0 -3 -3 -0 -0 -0 -0 -0 -0 -0 -0 -0 -0 -0 -0 -0 -0 -253
-3 -3 -4 -9 -7 -9 -11 -16 -8 -8 -11 -6 -5 -29 -46 -0 -3 -0 -0 -0 -3 -4 -4 -4 -0 -0 -2 -1 -3 -3 -0 -0 -0 -0 -0 -0 -0 -0 -0 -0 -0 -0 -368 -356
-8 -8 -6 -7 -12 -26 -8 -5 -31 -39 -7 -10 -7 -2 -72 -0 -7 -0 -0 -0 -5 -5 -5 -4 -1 -0 -5 -3 -5 -3 -1 -0 -0 -0 -0 -0 -0 -0 -0 -0 -0 -0 -97 -251
-7 -6 -2 -6 -8 -4 -5 -9 -9 -7 -8 -5 -3 -0 -21 -7 -6 -15 -4 -3 -6 -5 -6 -5 -4 -5 -6 -4 -2 -3 -5 -4 -1 -0 -0 -0 -0 -0 -0 -0 -0 -45 -80 -169
-28 -3 -4 -3 -7 -9 -0 -6 -10 -7 -4 -4 -6 -9 -15 -0 -16 -7 -10 -4 -3 -6 -5 -7 -6 -8 -4 -5 -5 -5 -4 -3 -2 -2 -0 -1 -3 -0 -0 -1 -1 -0 -21 -106
-6 -3 -3 -8 -8 -6 -9 -5 -6 -13 -7 -7 -7 -15 -11 -20 -17 -6 -5 -5 -4 -5 -6 -6 -6 -2 -3 -3 -4 -3 -3 -4 -3 -1 -2 -4 -6 -2 -2 -0 -1 -0 -84 -35
-18 -12 -3 -4 -6 -6 -9 -5 -6 -8 -10 -10 -7 -6 -11 -12 -9 -8 -8 -3 -9 -3 -7 -5 -8 -7 -6 -5 -14 -4 -2 -2 -1 -1 -0 -2 -2 -2 -4 -0 -1 -1 -28 -0
-4 -5 -4 -1 -6 -8 -6 -22 -9 -8 -7 -3 -11 -10 -8 -19 -16 -8 -12 -7 -4 -5 -7 -9 -8 -4 -10 -25 -24 -24 -41 -8 -8 -2 -2 -2 -1 -1 -3 -1 -1 -0 -41 -0
-2 -3 -3 -1 -6 -1 -10 -6 -8 -13 -6 -9 -18 -56 -12 -8 -6 -4 -23 -11 -4 -7 -36 -21 -6 -9 -7 -32 -24 -39 -40 -37 -39 -1 -2 -1 -2 -1 -2 -0 -0 -0 -80 -0
-5 -4 -3 -0 -1 -0 -1 -4 -12 -39 -11 -22 -2 -13 -57 -52 -26 -5 -0 -13 -3 -6 -5 -2 -2 -0 -0 -28 -44 -62 -94 -107 -35 -6 -0 -0 -1 -0 -1 -0 -0 -0 -100 -1
-0 -0 -0 -0 -0 -1 -11 -0 -0 -6 -0 -3 -2 -2 -36 -30 -3 -0 -6 -0 -0 -0 -0 -3 -2 -2 -2 -59 -6 -2 -1 -3 -3 -17 -2 -3 -3 -1 -0 -0 -0 -49 -11 -2
-2 -1 -0 -1 -0 -2 -3 -3 -8 -0 -4 -23 -1 -1 -1 -3 -2 -2 -6 -2 -1 -1 -4 -2 -3 -0 -0 -1 -3 -6 -3 -1 -2 -5 -1 -0 -0 -0 -0 -0 -0 -179 -0 -2
-3 -2 -0 -1 -0 -2 -9 -3 -1 -1 -0 -1 -2 -1 -1 -4 -8 -3 -2 -4 -3 -0 -4 -4 -3 -1 -0 -1 -5 -4 -1 -3 -3 -0 -0 -0 -0 -0 -2 -0 -74 -0 -2 -4
-4 -4 -0 -2 -1 -3 -4 -2 -8 -3 -1 -1 -1 -2 -3 -1 -3 -3 -2 -3 -3 -1 -1 -2 -2 -1 -0 -0 -0 -0 -0 -5 -0 -0 -0 -0 -0 -0 -0 -0 -7 -1 -4 -3
-4 -2 -1 -1 -3 -8 -1 -0 -0 -2 -1 -1 -1 -1 -2 -0 -4 -6 -10 -9 -2 -1 -1 -1 -2 -1 -0 -1 -0 -0 -0 -7 -2 -0 -97 -0 -0 -0 -0 -42 -3 -4 -2 -0
-1 -2 -0 -0 -0 -0 -0 -0 -0 -0 -0 -0 -1 -2 -0 -2 -2 -2 -1 -2 -1 -1 -1 -1 -1 -1 -0 -1 -1 -0 -3 -0 -0 -12 -9 -3 -1 -0 -1 -32 -21 -12 -5 -3
-0 -0 -0 -0 -0 -0 -0 -0 -0 -0 -1 -2 -0 -0 -0 -0 -1 -1 -2 -1 -1 -0 -0 -0 -1 -1 -1 -1 -0 -0 -0 -0 -0 -97 -62 -26 -18 -45 -85 -132 -142 -105 -188 -64
Wind_Speed
10 20 21 22 24 28 32 34 35 35 28 32 37 41 37 35 32 31 30 31 35 38 31 28 23 25 32 32 32 30 32 31 41 43 36 40 30 30 34 29 31 32 29 34
16 20 20 25 24 26 29 33 35 35 32 34 39 43 40 39 36 33 34 35 35 35 31 27 23 25 25 32 32 32 31 31 34 41 36 40 43 42 37 31 28 30 30 31
11 24 23 24 21 24 27 32 35 36 35 37 41 49 42 40 32 31 30 30 30 34 30 25 23 26 26 28 33 32 31 35 34 37 39 44 43 45 41 40 35 29 30 33
9 21 14 16 18 23 32 27 31 32 35 41 36 49 41 36 24 21 22 27 24 21 19 21 22 22 25 25 32 31 32 34 32 33 37 43 44 50 47 40 39 35 33 37
8 11 9 11 19 23 31 32 34 33 39 43 41 41 42 32 32 25 19 17 16 15 15 16 19 21 21 21 25 33 32 32 35 34 35 34 41 49 47 46 45 40 40 37
13 10 12 11 18 23 27 28 30 35 38 44 42 36 41 32 20 15 14 12 17 17 20 19 19 20 23 22 22 29 33 36 33 34 40 40 40 42 44 41 43 45 42 45
9 11 12 12 13 17 15 22 32 38 38 41 34 27 30 22 15 17 13 18 24 23 20 20 21 24 24 26 26 25 26 31 34 35 36 38 42 44 45 42 37 41 37 43
13 13 10 10 11 16 14 18 29 36 40 41 24 28 25 20 19 16 21 27 28 26 25 22 23 28 31 30 29 30 30 31 31 37 39 36 39 43 43 39 37 34 36 34
12 12 12 15 15 13 17 19 24 40 39 45 49 48 43 16 18 20 22 21 22 23 24 26 28 30 30 29 31 33 34 34 34 36 37 39 38 43 45 43 38 34 35 36
13 18 13 22 15 16 21 26 25 24 34 40 41 41 38 14 11 15 18 22 22 24 29 29 33 36 34 30 31 33 33 37 38 39 40 40 40 43 44 44 45 43 43 41
14 16 15 17 16 17 20 19 18 25 23 34 40 34 11 10 15 17 21 26 27 30 31 33 38 37 34 34 34 34 36 38 39 40 42 43 43 43 44 44 45 46 46 46
15 18 19 18 25 21 24 23 17 25 30 28 36 49 8 19 18 20 23 24 26 30 34 35 35 35 35 36 36 36 35 39 41 42 44 46 45 45 45 45 45 45 47 45
19 16 22 21 16 16 24 26 30 29 34 49 47 48 36 16 24 24 32 33 33 35 33 28 31 33 35 35 35 36 36 39 40 43 47 48 47 47 47 47 47 47 43 43
20 20 22 25 29 21 23 26 22 29 34 47 44 50 50 34 37 37 38 37 38 38 36 31 28 27 31 33 38 40 40 41 41 46 47 48 48 48 49 48 47 49 46 43
16 22 24 25 32 42 47 45 43 42 43 47 50 44 40 45 45 44 42 43 39 34 33 29 29 29 34 41 42 46 45 45 46 47 49 49 50 51 51 51 49 49 49 45
16 21 19 18 17 46 48 47 47 46 48 52 29 51 45 53 48 48 44 38 36 33 34 34 33 35 44 46 45 44 46 47 50 50 53 50 50 52 54 52 50 50 49 46
17 15 12 11 9 16 16 12 24 38 43 33 35 34 41 45 44 34 37 30 34 36 41 44 42 44 42 47 49 45 46 50 50 52 53 54 55 54 55 55 54 52 51 45
7 5 6 9 18 7 23 32 32 34 22 23 15 18 36 38 36 33 34 35 43 46 43 45 46 46 47 46 41 42 47 52 54 55 56 55 55 56 58 59 57 54 51 45
3 4 5 2 3 20 27 23 5 21 32 29 29 31 30 29 34 36 31 38 42 43 36 49 52 54 52 49 42 42 46 50 49 50 63 60 58 60 60 62 60 56 51 45
12 8 8 7 6 7 22 20 26 32 36 26 33 36 39 43 48 46 45 48 51 51 52 51 52 54 40 27 43 32 27 29 32 34 39 57 61 61 61 60 60 53 50 45
13 13 10 14 11 11 25 31 32 28 33 40 42 44 45 47 47 49 47 49 51 41 49 52 51 44 43 47 29 31 34 42 39 32 44 60 57 57 57 58 57 53 49 43
11 10 10 8 5 2 28 32 32 37 43 44 45 47 49 50 51 53 54 53 50 53 52 53 52 50 50 47 39 38 42 40 35 39 52 63 57 53 53 56 52 51 45 40
14 13 9 9 3 30 35 37 39 40 43 46 48 51 52 53 52 53 54 49 48 52 51 51 48 46 48 41 42 42 35 32 30 38 42 54 60 57 52 51 51 44 39 33
12 19 10 16 17 33 40 43 43 46 43 41 41 46 46 49 52 54 55 52 49 48 46 46 43 43 41 38 34 27 31 22 20 17 18 43 53 55 54 50 40 35 30 29
16 5 27 6 12 40 30 48 47 45 37 44 42 45 53 46 51 50 48 45 44 42 39 36 33 33 32 32 26 22 17 20 14 3 20 32 38 38 34 31 32 28 26 24
19 19 20 17 22 16 27 32 34 31 34 49 54 57 56 52 43 42 39 37 34 34 35 34 32 30 28 25 23 19 16 11 7 4 17 23 26 28 28 27 23 18 19 18
Wind_Direction
323 311 300 302 298 294 294 287 285 285 293 288 284 284 287 286 284 285 285 284 277 270 272 272 274 272 262 263 262 265 267 271 253 257 260 260 262 259 260 261 268 264 264 263
322 309 310 302 302 299 294 290 287 288 288 288 286 283 286 285 283 283 283 281 277 270 269 270 268 271 273 263 265 265 265 269 268 255 262 260 259 260 264 264 269 268 268 266
318 310 321 309 304 298 296 291 290 288 292 289 288 282 285 287 281 281 281 281 280 274 267 269 268 272 274 270 265 266 269 265 272 267 261 260 260 260 263 262 263 267 268 269
321 321 322 317 309 306 296 302 297 293 290 285 291 280 285 288 291 291 286 284 282 276 273 273 273 275 280 283 269 270 268 266 268 270 266 263 259 260 259 261 259 265 273 269
322 327 318 309 309 309 302 304 295 293 288 287 284 285 283 289 282 283 283 288 287 283 277 273 275 281 285 286 281 268 272 275 273 271 269 268 262 263 265 261 260 264 266 274
250 289 305 302 310 311 311 307 299 291 287 279 282 284 281 289 279 277 282 285 295 286 286 285 284 286 286 286 288 280 274 273 276 276 272 269 269 268 267 272 266 262 269 271
269 249 264 271 285 302 298 308 300 288 279 279 288 284 284 306 297 301 276 285 295 290 287 286 286 287 289 288 285 287 284 278 275 275 277 274 272 270 269 271 269 265 264 266
294 285 301 268 264 305 297 296 298 294 284 281 295 286 296 297 294 288 292 291 290 289 288 289 293 293 289 288 286 284 284 282 284 278 277 280 274 270 269 269 270 270 266 265
304 291 308 300 303 300 307 288 300 291 290 282 272 275 282 288 289 287 291 295 294 293 289 291 294 296 295 293 290 286 283 283 282 281 280 279 278 271 267 268 269 268 266 266
299 295 295 304 302 298 294 299 297 301 291 284 280 278 283 270 281 291 295 297 298 298 293 291 296 296 295 296 293 290 287 285 284 282 279 277 279 273 270 268 265 266 265 266
317 301 288 303 287 289 296 284 278 289 282 290 282 283 323 306 301 302 305 301 302 300 297 293 297 296 294 294 293 290 289 288 286 284 281 277 275 274 271 270 268 265 264 262
317 318 305 297 304 299 295 294 282 291 288 286 284 254 315 295 299 308 310 306 305 305 303 301 300 298 297 296 294 292 289 288 288 285 282 277 276 273 271 270 268 265 263 261
329 314 309 307 299 283 293 292 288 287 286 262 273 259 278 306 296 294 304 301 301 302 306 308 304 301 299 297 295 293 292 291 291 288 284 277 274 272 270 269 268 266 264 262
321 300 294 295 300 310 299 298 298 294 285 271 264 267 263 279 291 295 295 297 295 299 306 309 307 307 304 302 296 294 291 291 293 290 285 279 274 272 269 268 268 263 263 262
311 300 298 300 299 286 280 281 283 283 282 276 265 282 283 277 287 287 291 287 297 303 308 310 306 305 303 295 295 292 290 288 290 289 287 278 274 271 268 265 264 262 259 259
305 309 306 270 263 259 269 273 273 276 272 267 282 252 283 268 277 277 284 292 296 307 309 307 304 301 295 292 294 295 291 290 289 286 284 280 274 270 265 262 261 258 256 254
313 313 307 288 301 257 295 263 294 281 270 293 245 245 250 267 272 287 291 299 304 306 304 300 299 295 297 293 294 296 294 291 289 284 283 279 273 266 261 259 256 253 251 250
309 283 295 319 307 276 282 279 268 253 269 295 311 307 277 283 290 294 302 305 301 304 304 296 288 293 297 298 303 300 294 287 286 284 279 275 271 264 260 254 250 247 246 245
123 175 36 76 173 235 248 243 309 314 274 307 313 309 310 305 304 300 311 307 308 308 307 284 283 288 293 296 302 303 299 295 291 289 278 273 265 263 255 246 241 239 240 240
49 75 148 108 124 92 303 310 296 310 275 322 317 305 302 299 289 295 300 301 291 292 283 277 274 282 294 293 304 302 276 271 260 258 285 274 257 253 245 236 232 233 234 232
46 62 143 185 183 203 318 314 312 312 300 302 305 306 305 297 297 298 302 300 285 265 271 275 274 265 266 298 304 268 269 264 265 286 291 262 253 240 233 224 223 226 226 222
51 54 57 111 112 70 322 322 317 306 298 304 302 304 301 298 284 283 286 283 275 280 275 278 275 273 275 271 266 268 269 274 276 267 254 249 236 226 219 214 217 219 215 212
31 41 48 39 65 280 320 314 319 320 313 306 300 297 298 288 282 282 283 273 270 271 271 273 271 268 269 266 271 274 275 278 285 282 261 203 198 203 205 207 209 207 203 199
10 309 35 268 5 310 319 312 322 313 287 282 278 281 279 280 284 287 286 279 274 270 268 269 265 265 265 265 263 263 274 290 288 306 171 173 182 190 195 199 195 191 183 184
309 286 337 291 307 293 301 311 309 289 282 282 276 278 290 278 281 280 278 272 271 268 265 264 262 259 260 264 258 260 259 278 329 88 142 162 171 175 175 180 185 180 181 182
12 7 1 351 304 312 285 291 292 292 284 295 300 292 287 284 273 274 270 271 265 264 265 262 259 258 256 248 250 257 267 256 292 97 144 152 160 165 168 171 169 170 181 177